Wetbulb
67.51 68.49 69.03 69.09 68.83 70.42 70.36 71.15 71.10 71.53 71.69 72.17 72.58 72.11 71.94 71.19 71.24 71.40 71.78 73.15 74.35 75.06 75.45 74.87 76.31 77.03 77.13 76.62 76.18 76.45 76.32 76.04 76.28 75.63 75.46 75.49 75.05 75.52 74.96 74.18 74.62 74.56 74.85
67.39 68.67 68.44 69.62 68.54 69.12 69.91 70.50 70.35 70.90 71.42 71.32 71.17 71.65 70.94 70.53 70.51 70.79 71.65 71.95 73.31 74.23 75.38 75.66 76.07 76.95 77.41 76.91 76.87 76.69 76.86 76.54 76.43 76.39 75.46 75.64 75.55 75.16 75.10 74.70 74.70 74.67 74.73
66.66 68.49 70.09 70.46 70.32 71.02 70.71 71.05 70.47 70.51 71.09 71.15 71.15 71.83 71.69 71.08 70.98 70.36 70.80 71.62 71.29 72.86 73.90 75.27 77.02 76.99 77.58 77.07 76.96 77.18 77.14 77.22 76.37 76.64 76.18 74.96 75.53 75.35 75.33 75.06 74.80 74.81 75.18
67.86 68.43 69.71 71.10 71.49 71.11 70.62 71.04 70.95 70.53 70.72 71.00 70.58 70.92 72.18 71.64 71.31 71.54 71.42 71.07 71.37 71.54 72.45 74.49 75.88 76.59 76.49 76.22 76.37 76.66 77.20 77.23 77.17 76.97 76.79 76.21 75.58 75.80 75.71 75.64 75.24 75.49 75.16
71.45 69.51 70.25 71.30 72.48 72.16 70.52 70.94 70.92 70.96 70.46 71.05 70.58 70.61 71.24 71.63 71.26 71.52 71.61 71.33 71.49 72.09 71.85 72.71 75.13 76.31 76.59 76.54 76.97 76.98 76.99 77.18 77.29 76.99 76.95 76.41 76.14 75.74 75.87 76.14 76.01 76.01 75.51
71.41 71.47 70.68 71.13 72.49 71.71 70.98 70.77 70.49 71.15 70.85 71.33 71.25 72.19 70.61 71.15 71.52 71.02 70.65 70.95 71.61 71.06 71.41 72.40 72.71 73.70 76.31 77.23 76.83 77.02 77.22 77.40 77.50 77.40 76.92 76.77 76.39 76.19 76.09 76.03 75.85 75.73 75.68
71.94 71.53 71.04 71.01 70.77 70.23 69.65 69.62 70.95 70.27 68.88 70.23 70.35 69.91 70.37 69.60 69.60 70.36 70.79 70.03 70.05 70.45 71.50 72.20 72.52 72.87 73.20 75.86 76.46 76.74 77.36 77.82 77.70 77.98 77.15 76.92 76.88 76.45 76.13 75.79 75.78 75.67 75.62
71.91 71.59 71.18 71.19 70.86 70.16 69.55 69.88 70.74 69.75 68.88 70.52 68.53 67.55 65.87 67.00 66.49 67.53 68.09 68.38 68.77 69.11 68.91 70.26 71.08 72.84 73.39 73.77 74.86 76.67 76.96 77.28 77.97 78.03 77.85 77.15 76.95 76.65 76.45 75.60 75.34 75.25 75.43
72.06 72.66 71.93 70.91 70.55 70.46 69.80 70.27 70.54 69.90 68.53 68.70 69.55 67.79 64.22 62.90 64.01 66.20 66.79 68.29 69.99 69.90 70.18 70.11 70.88 72.19 73.39 73.76 74.21 75.41 76.72 76.07 76.95 77.69 78.33 77.20 77.36 76.77 76.56 75.78 75.37 75.04 75.07
70.23 71.43 71.72 71.56 71.16 70.55 70.39 70.83 71.79 70.94 69.29 67.23 68.40 69.03 68.44 67.41 65.36 62.85 68.18 68.89 69.79 68.92 69.81 70.71 70.27 72.26 73.22 73.51 74.14 74.86 75.29 75.78 76.32 77.01 77.87 77.70 77.60 77.33 76.79 76.30 75.55 75.37 75.14
71.29 70.59 69.56 69.98 71.32 71.99 71.40 71.19 71.52 70.70 70.68 70.11 68.95 67.30 66.74 66.81 65.81 65.29 63.20 65.92 68.46 69.07 69.66 69.82 70.25 71.09 73.08 73.84 73.77 74.34 74.97 75.15 75.32 75.79 76.34 76.97 77.50 77.53 76.62 76.39 76.16 75.95 75.99
70.91 69.97 68.10 67.64 69.46 70.01 71.13 71.55 71.95 71.88 71.15 70.57 70.05 69.60 68.90 67.39 65.24 66.02 65.27 66.14 66.27 68.11 69.60 70.04 70.18 69.87 70.65 72.96 74.01 74.46 74.58 74.79 74.36 74.57 75.03 75.86 76.57 77.45 77.05 76.67 76.17 75.78 76.22
70.10 70.27 68.01 67.34 67.86 69.09 69.27 70.92 70.94 70.66 71.32 70.75 69.95 70.01 69.62 68.94 68.34 67.77 66.34 65.63 65.89 68.38 68.31 69.45 70.25 70.59 70.65 71.68 72.70 74.68 75.11 73.49 73.41 72.70 72.95 73.91 74.68 75.85 76.87 77.27 77.17 76.74 76.82
69.98 70.84 69.86 69.45 69.87 68.92 68.63 70.50 71.11 70.83 70.83 71.05 70.92 70.27 70.03 69.55 68.17 67.45 67.14 65.56 64.51 65.19 65.53 65.45 69.08 69.89 71.88 72.19 72.64 73.59 74.27 72.26 71.89 71.22 71.10 71.91 72.54 73.47 74.66 75.75 76.22 76.24 76.57
71.28 71.32 71.36 70.47 70.03 69.74 68.73 67.88 67.68 68.12 70.62 71.55 71.08 70.68 70.00 70.17 69.56 68.66 67.75 67.42 66.14 63.71 62.88 66.11 67.35 70.73 71.77 72.40 72.48 73.10 73.36 72.38 71.08 70.83 69.90 70.07 70.77 71.65 72.50 73.11 73.63 73.77 74.16
71.26 71.09 70.72 69.89 70.30 70.04 70.87 69.76 70.10 70.92 70.86 71.49 71.78 70.99 70.23 70.89 70.46 69.81 68.56 67.89 67.10 66.01 64.62 66.04 69.02 70.19 70.83 70.95 72.39 73.32 72.94 71.42 71.20 70.19 69.83 69.25 69.65 70.46 70.93 71.58 71.75 71.93 72.09
70.96 71.25 70.69 70.54 71.13 71.71 71.55 71.61 71.50 71.80 71.44 71.36 71.24 71.21 71.05 71.48 71.05 70.84 70.87 70.03 68.09 67.08 65.46 67.70 68.71 70.13 69.84 70.81 71.34 71.95 72.40 73.67 74.43 69.41 69.29 69.07 68.69 69.14 69.68 69.99 70.13 70.24 70.46
70.66 71.29 70.91 69.12 68.31 68.47 69.12 68.45 68.13 68.64 69.02 69.10 69.20 68.98 69.77 71.68 70.19 70.21 70.28 69.11 69.24 69.08 67.66 66.30 68.03 68.18 68.44 70.79 71.24 71.12 72.43 72.55 73.84 71.62 68.68 68.36 67.89 67.62 67.55 67.78 67.89 67.89 67.80
68.36 68.45 68.90 68.69 68.23 67.31 67.17 67.69 67.71 67.97 67.84 67.66 68.13 69.23 70.05 70.35 70.32 70.02 70.23 68.99 68.99 69.60 68.56 68.20 67.22 68.82 69.48 71.24 71.32 72.02 72.69 73.58 73.27 71.37 68.32 67.68 67.10 67.06 66.34 65.80 65.37 64.88 64.32
66.20 66.19 66.82 66.80 66.53 66.45 66.65 66.98 67.28 67.31 66.96 67.08 68.13 68.16 68.77 68.91 69.20 69.57 69.36 69.86 70.03 69.33 69.04 67.59 67.28 68.08 68.77 70.92 72.05 71.18 70.90 72.11 72.86 73.68 72.92 70.40 69.05 67.79 66.68 65.06 64.84 64.55 62.36
66.05 66.30 65.95 65.84 65.98 66.14 66.29 66.38 65.66 65.14 65.21 65.54 66.61 67.32 68.13 68.24 68.60 68.94 69.62 69.89 69.87 68.40 67.53 67.06 66.87 67.82 67.94 68.99 68.69 70.59 70.35 70.65 70.50 72.97 72.43 74.46 74.26 73.71 72.92 66.97 69.00 66.97 64.41
65.99 65.82 65.73 66.26 66.38 65.71 63.83 64.19 65.60 64.66 65.01 65.14 64.85 66.03 67.03 67.24 67.95 66.94 66.74 67.69 69.19 68.83 67.71 66.65 66.18 66.72 67.96 68.91 69.44 69.15 69.62 69.64 68.44 72.37 72.70 72.11 74.05 72.56 72.99 73.37 68.93 66.48 64.48
64.67 64.87 64.72 64.37 63.70 63.33 61.83 62.71 64.39 64.43 64.19 64.48 64.81 64.94 65.16 66.27 66.98 67.94 66.83 66.05 66.47 66.17 67.41 69.55 67.37 67.47 67.51 68.05 70.03 69.14 69.32 69.52 68.86 71.83 73.11 70.23 73.19 71.95 73.87 72.86 66.03 65.03 63.90
61.87 61.54 61.72 62.19 61.90 62.04 61.02 60.99 62.39 63.07 63.02 63.46 63.97 64.61 64.88 65.10 66.24 66.69 67.19 67.27 67.69 68.16 68.00 68.45 69.06 68.68 68.63 70.12 71.36 71.76 70.65 70.72 71.23 71.17 72.66 68.67 71.27 70.90 73.51 73.98 66.77 65.32 63.64
57.65 58.17 58.92 59.39 59.57 59.86 59.30 59.18 60.13 61.40 61.47 61.82 62.83 63.71 64.37 64.57 63.70 62.61 65.39 65.61 66.21 66.52 65.25 63.84 65.25 65.35 64.95 64.93 67.48 70.78 68.43 67.82 67.59 69.42 71.82 70.42 70.59 70.44 72.23 72.20 73.84 65.45 62.90
54.14 54.53 54.80 55.85 56.67 57.33 57.56 57.39 58.35 60.24 59.83 59.82 61.41 62.72 62.20 62.96 61.30 60.36 64.39 65.04 64.05 64.34 65.75 66.58 67.72 64.78 64.59 66.43 64.29 68.20 69.33 66.85 67.96 67.89 71.32 69.78 69.94 70.59 69.20 70.63 70.17 71.41 70.63
MSLP
1018.98 1018.88 1018.85 1018.94 1019.03 1018.97 1018.86 1018.97 1019.11 1019.19 1019.22 1019.21 1019.10 1019.15 1019.26 1019.58 1019.72 1019.82 1019.84 1019.89 1019.93 1020.05 1020.14 1020.13 1020.15 1020.25 1020.29 1020.46 1020.55 1020.67 1020.82 1020.95 1021.13 1021.35 1021.44 1021.49 1021.68 1021.76 1021.75 1021.88 1021.99 1022.04 1022.02
1018.87 1018.70 1018.61 1018.68 1018.80 1018.72 1018.55 1018.67 1018.84 1019.03 1019.07 1019.04 1018.94 1018.90 1018.96 1019.14 1019.33 1019.29 1019.41 1019.61 1019.69 1019.76 1019.83 1019.87 1019.78 1019.78 1019.85 1019.99 1020.12 1020.26 1020.40 1020.58 1020.83 1020.90 1021.24 1021.36 1021.38 1021.46 1021.55 1021.61 1021.70 1021.78 1021.91
1018.53 1018.54 1018.38 1018.41 1018.38 1018.37 1018.41 1018.42 1018.50 1018.84 1018.77 1018.64 1018.86 1018.61 1018.62 1018.81 1018.81 1018.89 1019.00 1019.17 1019.28 1019.36 1019.41 1019.45 1019.35 1019.25 1019.40 1019.57 1019.63 1019.73 1019.97 1020.13 1020.52 1020.57 1020.83 1020.93 1021.09 1021.08 1021.19 1021.33 1021.43 1021.55 1021.65
1018.27 1018.40 1018.31 1018.04 1017.90 1017.90 1018.16 1018.15 1018.21 1018.30 1018.43 1018.51 1018.58 1018.40 1018.11 1018.25 1018.28 1018.41 1018.55 1018.51 1018.68 1018.85 1018.94 1019.00 1018.78 1018.87 1019.02 1019.05 1019.18 1019.37 1019.59 1019.76 1019.98 1020.24 1020.38 1020.62 1020.75 1020.89 1021.00 1021.04 1021.11 1021.25 1021.39
1017.85 1018.06 1018.08 1017.95 1017.83 1017.72 1017.79 1017.96 1018.02 1018.06 1018.26 1018.21 1018.27 1018.11 1017.82 1017.73 1017.75 1017.84 1017.94 1018.14 1018.01 1018.11 1018.27 1018.44 1018.47 1018.41 1018.42 1018.47 1018.68 1018.89 1019.08 1019.31 1019.53 1019.75 1019.90 1020.18 1020.44 1020.62 1020.68 1020.84 1020.85 1020.95 1021.01
1017.65 1017.83 1017.77 1017.77 1017.75 1017.62 1017.64 1017.81 1017.96 1017.86 1017.77 1017.90 1017.99 1017.84 1017.83 1017.61 1017.57 1017.81 1017.86 1017.85 1017.87 1017.78 1017.80 1017.88 1018.04 1017.91 1017.91 1017.86 1017.91 1018.21 1018.43 1018.73 1019.00 1019.26 1019.46 1019.62 1019.93 1020.09 1020.32 1020.51 1020.64 1020.74 1020.79
1017.29 1017.48 1017.49 1017.55 1017.56 1017.69 1017.55 1017.70 1017.73 1017.75 1017.91 1017.85 1017.92 1017.86 1017.66 1017.44 1017.50 1017.45 1017.53 1017.70 1017.78 1017.76 1017.61 1017.42 1017.42 1017.50 1017.38 1017.26 1017.32 1017.46 1017.78 1017.98 1018.33 1018.62 1018.91 1019.16 1019.40 1019.61 1019.84 1020.11 1020.28 1020.41 1020.53
1016.78 1016.89 1016.80 1016.88 1016.93 1017.23 1017.40 1017.50 1017.59 1017.54 1017.57 1017.54 1017.68 1017.97 1017.78 1017.63 1017.53 1017.28 1017.33 1017.38 1017.46 1017.45 1017.20 1017.06 1016.99 1016.91 1016.91 1016.80 1016.64 1016.73 1017.01 1017.30 1017.67 1017.94 1018.30 1018.71 1018.92 1019.09 1019.25 1019.52 1019.74 1019.93 1020.15
1016.18 1016.29 1016.37 1016.34 1016.51 1016.84 1017.03 1017.11 1017.22 1017.19 1017.19 1017.41 1017.48 1017.55 1017.69 1017.66 1017.54 1017.02 1017.01 1017.08 1017.15 1017.18 1016.93 1016.75 1016.54 1016.37 1016.33 1016.32 1016.37 1016.27 1016.46 1016.77 1017.05 1017.28 1017.64 1018.06 1018.37 1018.58 1018.67 1018.85 1019.12 1019.38 1019.63
1016.00 1016.07 1016.22 1016.05 1016.26 1016.50 1016.80 1016.82 1016.92 1016.90 1017.02 1017.20 1017.45 1017.40 1017.29 1017.41 1017.52 1017.52 1017.12 1016.82 1016.90 1016.82 1016.71 1016.42 1016.14 1015.88 1015.78 1015.82 1015.95 1015.82 1015.86 1016.19 1016.47 1016.83 1017.05 1017.44 1017.79 1018.09 1018.25 1018.37 1018.56 1018.80 1019.04
1015.48 1015.73 1016.22 1016.09 1016.02 1016.04 1016.30 1016.42 1016.64 1016.83 1016.84 1016.78 1016.91 1017.25 1017.50 1017.60 1017.78 1017.97 1017.57 1017.06 1016.74 1016.41 1016.28 1016.16 1015.85 1015.50 1015.24 1015.33 1015.32 1015.31 1015.38 1015.71 1015.98 1016.27 1016.58 1016.72 1017.10 1017.43 1017.66 1017.86 1018.06 1018.21 1018.37
1015.43 1015.26 1015.73 1016.02 1015.94 1016.09 1016.30 1016.39 1016.52 1016.72 1016.83 1016.75 1016.72 1016.77 1016.97 1017.21 1017.44 1017.71 1017.65 1017.23 1016.88 1016.23 1015.93 1015.68 1015.42 1014.96 1014.74 1014.71 1014.75 1014.69 1014.89 1015.09 1015.32 1015.60 1015.85 1016.13 1016.35 1016.70 1016.94 1017.09 1017.29 1017.53 1017.69
1015.57 1015.48 1015.66 1015.63 1015.73 1015.51 1015.60 1015.85 1016.31 1016.45 1016.67 1016.72 1016.58 1016.53 1016.69 1016.62 1016.73 1017.08 1017.35 1017.17 1016.88 1016.13 1015.65 1015.31 1014.71 1014.40 1014.14 1014.16 1014.24 1014.35 1014.36 1014.52 1014.72 1014.91 1015.06 1015.35 1015.91 1016.17 1016.44 1016.66 1016.80 1016.93 1017.06
1015.54 1015.35 1015.46 1015.53 1015.72 1015.63 1015.59 1015.64 1015.95 1015.92 1016.10 1016.35 1016.26 1016.22 1016.22 1016.28 1016.40 1016.48 1016.62 1016.87 1016.82 1016.57 1016.00 1015.08 1014.36 1013.98 1013.83 1013.86 1014.02 1014.10 1013.91 1014.08 1014.22 1014.40 1014.44 1014.69 1015.13 1015.59 1015.93 1016.10 1016.22 1016.38 1016.57
1015.01 1015.16 1015.20 1015.12 1015.19 1015.42 1015.52 1015.58 1015.58 1015.57 1015.57 1015.61 1015.72 1015.77 1015.65 1015.56 1015.63 1015.60 1015.74 1015.94 1016.25 1016.23 1015.58 1014.66 1014.57 1013.58 1013.51 1013.50 1013.38 1013.49 1013.57 1013.56 1013.74 1013.89 1014.04 1014.13 1014.36 1014.61 1014.99 1015.39 1015.62 1015.79 1015.99
1014.30 1015.00 1014.81 1015.04 1015.33 1015.20 1015.50 1015.54 1015.61 1015.42 1015.51 1015.27 1015.19 1015.24 1015.35 1015.14 1015.04 1014.95 1014.88 1014.97 1015.29 1015.29 1015.11 1014.45 1014.06 1013.69 1013.21 1012.89 1012.80 1013.02 1013.04 1013.08 1013.14 1013.09 1013.18 1013.45 1013.73 1013.91 1014.13 1014.38 1014.72 1015.09 1015.41
1014.52 1014.76 1014.69 1014.83 1015.07 1015.19 1015.29 1015.38 1015.47 1015.34 1015.09 1015.00 1015.00 1014.91 1014.67 1014.54 1014.34 1014.21 1014.19 1014.18 1014.25 1014.49 1014.40 1013.73 1013.56 1013.23 1013.11 1012.66 1012.40 1012.31 1012.54 1012.56 1012.40 1012.38 1012.52 1012.59 1012.84 1013.16 1013.51 1013.75 1013.87 1014.20 1014.53
1014.11 1014.48 1014.78 1014.94 1014.74 1015.00 1015.16 1015.34 1015.25 1015.32 1015.13 1014.90 1014.72 1014.50 1014.17 1014.02 1013.90 1013.78 1013.66 1013.51 1013.48 1013.54 1013.73 1013.40 1013.11 1013.11 1012.93 1012.47 1012.06 1011.87 1011.80 1011.62 1011.64 1011.78 1011.94 1012.04 1012.14 1012.57 1012.84 1013.19 1013.31 1013.53 1013.71
1013.79 1014.32 1014.60 1014.90 1014.85 1014.75 1015.01 1015.17 1015.05 1014.99 1014.86 1014.65 1014.53 1014.39 1013.83 1013.64 1013.37 1013.29 1013.18 1013.01 1012.89 1012.89 1013.07 1013.03 1012.65 1012.42 1012.26 1012.33 1012.06 1011.65 1011.20 1010.99 1010.94 1010.99 1011.21 1011.51 1011.71 1011.88 1012.17 1012.43 1012.76 1012.92 1013.17
1013.88 1014.02 1014.40 1014.70 1014.69 1014.58 1014.77 1015.24 1014.95 1014.78 1014.61 1014.26 1013.99 1013.71 1013.62 1013.32 1013.07 1012.90 1012.70 1012.45 1012.21 1012.33 1012.48 1012.45 1012.28 1012.08 1011.98 1011.71 1011.62 1011.43 1011.20 1010.90 1010.68 1010.54 1010.69 1010.79 1010.97 1011.19 1011.49 1011.74 1011.89 1012.10 1012.26
1013.71 1013.82 1014.14 1014.39 1014.39 1014.44 1014.58 1014.92 1014.71 1014.53 1014.34 1013.90 1013.62 1013.27 1012.87 1012.69 1012.42 1012.38 1012.64 1012.06 1011.74 1011.66 1011.82 1011.85 1011.59 1011.41 1011.32 1011.29 1011.07 1010.98 1010.93 1010.64 1010.41 1010.30 1010.36 1010.43 1010.46 1010.54 1010.53 1010.84 1010.80 1011.08 1011.27
1014.03 1014.11 1014.20 1014.37 1014.44 1014.38 1014.35 1014.40 1014.22 1014.14 1013.75 1013.48 1012.90 1012.80 1012.32 1012.10 1011.72 1011.47 1011.49 1011.85 1011.30 1010.93 1010.93 1011.01 1010.82 1010.60 1010.39 1010.46 1010.43 1010.45 1010.51 1010.40 1010.15 1009.71 1009.77 1009.79 1009.90 1009.78 1009.71 1009.70 1009.63 1010.04 1010.34
1014.61 1014.72 1014.71 1014.71 1014.56 1014.27 1014.13 1014.11 1013.92 1013.81 1013.46 1013.07 1012.62 1012.30 1011.79 1011.41 1011.05 1010.57 1010.46 1011.02 1010.82 1010.26 1010.07 1010.12 1009.93 1009.73 1009.78 1009.86 1009.85 1009.93 1009.80 1009.85 1009.54 1009.46 1009.45 1009.14 1009.32 1009.21 1009.03 1008.89 1009.08 1009.21 1009.41
1015.33 1015.17 1014.94 1014.84 1014.57 1014.10 1013.96 1013.81 1013.34 1013.01 1012.93 1012.55 1011.99 1011.58 1011.41 1010.69 1010.67 1010.04 1009.84 1009.56 1010.55 1009.69 1009.32 1009.30 1009.11 1008.97 1009.03 1009.14 1009.12 1009.19 1009.16 1009.15 1009.16 1009.18 1009.36 1009.05 1008.80 1008.56 1008.58 1008.44 1008.40 1008.52 1008.71
1015.34 1015.17 1015.15 1014.66 1014.19 1013.89 1013.83 1013.45 1012.95 1012.56 1012.28 1011.75 1011.43 1010.74 1010.43 1010.13 1009.84 1009.61 1009.30 1009.30 1009.16 1009.24 1008.60 1008.41 1008.28 1008.24 1008.28 1008.47 1008.56 1008.72 1008.73 1008.78 1008.54 1008.38 1008.50 1008.57 1008.24 1008.17 1008.01 1007.75 1007.60 1007.83 1008.01
1015.65 1015.19 1014.55 1014.49 1014.17 1013.52 1013.63 1012.84 1012.44 1012.58 1011.74 1011.14 1010.52 1010.13 1009.74 1009.27 1008.71 1008.34 1008.72 1008.83 1008.34 1008.58 1008.04 1007.72 1007.61 1007.61 1007.64 1007.86 1007.91 1008.08 1008.05 1007.96 1008.13 1007.84 1007.52 1007.97 1007.49 1007.84 1007.58 1006.81 1006.85 1006.89 1007.10
Wind_Speed
3 3 3 2 3 3 3 2 2 2 3 4 4 4 5 6 6 3 3 9 10 12 15 18 18 15 15 13 13 13 13 12 13 12 12 11 10 9 9 7 9 7 8
4 4 3 3 3 4 3 3 3 3 3 3 5 5 5 5 6 6 4 5 12 15 16 17 17 16 16 15 15 15 14 12 12 12 11 12 10 10 8 7 7 8 8
5 5 4 3 5 4 4 4 3 3 3 4 5 5 5 6 7 7 5 5 6 12 12 15 16 17 15 17 16 14 14 14 13 13 11 11 11 9 9 8 8 9 10
6 5 4 5 4 4 4 3 3 3 3 4 3 5 4 5 6 7 6 6 6 7 9 12 15 17 17 18 18 16 15 14 13 14 11 11 12 11 11 9 9 9 10
6 5 4 3 3 3 3 3 3 3 3 3 4 5 4 3 4 5 7 6 8 7 6 10 14 15 19 19 17 15 15 15 15 14 12 12 12 12 11 10 10 9 9
6 4 4 5 3 3 2 3 3 3 3 3 2 2 3 4 3 4 5 5 6 8 9 8 7 8 14 17 17 16 16 16 15 16 13 12 13 11 11 10 9 8 8
6 5 5 4 4 4 3 4 3 4 4 2 1 1 3 5 5 5 4 4 6 6 7 7 5 6 7 15 15 16 16 17 17 16 14 13 13 12 12 10 9 9 8
5 6 7 6 6 5 5 5 4 2 2 3 2 1 1 2 2 6 5 5 7 6 8 7 9 9 8 6 10 15 16 18 17 16 15 14 14 13 12 11 10 9 9
5 6 6 5 5 5 5 4 4 5 3 2 3 2 1 2 2 1 2 4 5 4 5 6 8 9 9 8 9 10 15 14 16 16 16 15 14 14 14 12 11 11 11
4 5 5 5 4 2 4 4 3 3 3 3 1 3 0 1 1 3 1 3 4 6 6 5 6 7 9 8 12 13 11 14 15 17 18 16 15 15 14 13 13 12 11
4 3 3 4 3 3 4 5 4 4 4 2 3 2 1 1 1 2 3 3 2 3 5 5 6 6 8 8 9 10 15 14 15 16 17 16 16 17 16 15 14 13 13
3 4 3 2 3 3 4 4 4 5 4 4 2 3 3 3 3 4 5 3 3 3 3 5 6 8 8 8 10 13 14 16 15 15 15 15 17 17 18 18 16 16 15
3 4 4 4 4 4 5 4 4 5 4 4 4 4 3 4 3 2 1 2 3 2 2 5 6 6 7 6 8 11 14 14 15 15 15 15 16 16 17 17 16 17 16
4 3 4 4 4 3 4 4 3 4 5 5 7 5 4 5 6 5 4 4 3 3 2 6 3 4 3 3 5 8 9 12 13 15 15 15 16 16 16 17 16 16 15
3 4 4 4 5 3 4 5 4 5 5 5 6 6 6 5 6 7 7 6 4 3 3 2 3 1 1 3 6 5 5 6 12 15 14 15 16 17 17 17 15 14 13
3 5 3 3 2 2 4 3 4 3 4 4 4 6 6 6 6 6 7 6 7 7 5 5 5 4 4 3 5 6 7 8 10 12 13 14 14 15 17 17 15 14 14
3 3 4 3 1 1 2 2 4 5 4 4 3 4 7 6 5 6 6 6 7 6 8 4 5 4 4 5 4 5 6 6 6 10 12 14 14 15 15 16 16 16 16
3 3 3 4 3 2 2 1 3 4 4 6 6 5 6 4 6 6 5 8 7 8 7 10 3 4 7 5 4 5 5 7 6 8 13 12 12 14 14 15 16 16 16
4 4 4 3 3 2 1 2 3 4 4 5 6 6 6 5 5 4 5 6 6 5 7 6 7 4 4 3 4 5 4 4 6 8 9 11 12 13 13 14 15 15 15
6 5 4 4 3 2 2 4 4 4 6 6 7 7 7 7 7 7 6 7 6 6 6 8 9 8 6 5 4 4 4 3 4 5 6 7 7 12 13 14 15 14 15
4 4 4 4 4 4 4 4 4 5 6 7 8 8 8 10 12 10 6 7 7 7 6 7 8 8 8 5 6 3 5 2 3 4 4 4 3 4 6 10 9 13 15
3 3 4 4 4 3 5 8 7 6 7 8 9 9 9 13 12 13 13 15 11 8 8 7 8 9 10 7 5 6 6 4 4 4 5 4 5 6 6 5 10 14 14
5 4 4 4 5 5 8 10 13 8 8 9 10 10 10 9 12 10 11 14 13 15 14 10 10 11 10 8 7 6 7 6 7 3 4 5 4 6 6 7 10 12 13
4 4 5 6 6 7 11 13 15 9 9 10 11 12 12 12 12 11 10 10 12 10 9 8 11 11 10 9 5 6 7 7 5 5 5 8 4 6 4 5 10 11 11
7 7 7 8 8 9 12 13 13 9 10 10 11 11 12 13 15 15 12 12 11 11 8 14 14 13 14 14 10 4 6 6 5 5 7 5 5 5 4 7 5 10 11
7 7 9 8 11 10 13 14 13 8 10 9 10 11 17 16 17 16 12 10 10 12 9 8 7 8 13 12 13 10 7 8 6 3 6 6 5 4 4 4 8 7 6
Wind_Direction
247 218 224 232 204 198 200 212 234 224 243 242 238 227 221 216 232 231 233 246 248 251 255 245 252 241 237 241 247 251 246 247 240 241 249 259 259 261 271 272 273 280 282
234 225 215 223 218 218 196 213 216 231 236 242 259 244 247 233 224 219 221 237 250 257 258 260 254 237 233 238 241 247 253 250 253 249 244 253 246 256 262 265 267 277 281
223 231 226 217 221 208 194 209 207 212 233 232 243 245 228 239 240 229 217 215 237 249 264 266 250 235 232 237 241 242 245 247 243 252 245 241 253 248 255 262 264 272 277
224 229 230 238 207 188 189 198 196 199 229 230 239 242 234 225 240 238 230 213 217 227 235 253 254 242 240 244 244 246 244 239 241 241 235 246 246 248 242 245 246 257 267
227 219 239 259 236 220 207 191 205 198 202 230 235 235 235 234 249 258 248 234 234 229 234 244 249 251 245 247 248 249 247 243 237 240 234 235 236 240 242 243 242 250 262
236 230 241 242 237 253 235 215 205 213 204 212 250 234 229 237 237 232 250 255 240 239 236 228 237 245 244 248 245 243 241 238 237 239 229 230 229 233 241 236 245 254 259
229 218 237 247 222 237 241 238 215 199 206 178 124 310 251 232 229 239 242 250 258 258 256 249 239 237 242 241 248 241 238 234 233 233 231 232 221 225 231 225 233 244 253
233 237 232 228 211 215 233 238 220 202 182 175 148 182 291 327 281 243 239 241 256 258 256 251 250 241 238 238 237 234 233 234 235 229 228 233 220 222 216 218 227 235 243
230 242 249 230 226 207 223 223 223 207 203 179 209 156 149 242 326 312 236 234 253 265 265 256 256 252 242 240 240 236 229 229 231 232 229 232 220 220 215 216 221 225 232
233 247 267 238 246 193 223 235 242 222 162 196 187 245 232 137 187 325 257 255 239 255 271 268 266 255 240 233 236 232 221 220 224 230 225 225 227 224 221 220 221 222 229
213 209 244 263 203 217 229 212 235 213 217 188 182 143 190 210 121 213 284 298 279 259 251 252 257 255 245 233 232 231 219 216 219 227 227 218 225 225 229 229 229 226 229
235 215 179 272 247 247 255 251 239 232 234 246 209 182 172 179 189 205 235 254 261 283 265 255 256 250 238 227 232 230 218 216 217 219 216 219 222 225 229 229 230 232 233
240 236 185 198 223 216 229 226 238 251 247 240 227 215 206 211 182 191 219 278 268 278 295 258 258 259 244 228 241 240 219 213 216 215 212 210 226 227 228 230 230 231 232
255 174 190 220 249 263 255 234 230 230 232 240 247 224 216 224 207 201 205 184 258 248 280 253 272 278 242 239 266 279 249 224 223 221 213 209 212 220 226 226 225 228 231
231 241 227 192 199 221 218 219 223 241 238 239 245 258 246 243 222 215 207 209 202 243 265 281 277 234 251 248 252 244 253 243 227 222 220 212 211 211 217 223 223 222 225
191 217 172 177 262 260 271 244 268 264 253 257 245 242 240 248 234 221 217 208 209 218 246 196 228 259 237 263 250 239 251 238 242 228 220 219 219 218 218 218 219 220 224
206 176 155 157 218 313 321 278 291 297 287 287 269 259 269 260 251 244 221 216 212 202 231 251 234 242 260 238 249 218 233 244 236 221 222 216 218 220 222 222 217 218 221
189 198 136 129 128 90 60 1 319 317 311 309 299 290 272 271 268 255 241 239 224 209 216 244 219 225 234 245 236 215 223 236 228 229 232 226 211 216 216 223 220 222 222
140 133 128 148 146 151 252 299 300 299 289 280 287 284 275 257 260 253 243 245 243 223 223 241 260 226 235 251 261 257 239 239 244 235 231 229 221 214 213 220 227 225 227
163 161 175 189 199 199 228 252 250 268 283 282 276 266 263 264 263 262 252 249 242 237 227 232 249 256 243 230 228 242 268 229 251 233 230 238 208 211 219 222 227 224 223
193 189 190 214 214 220 240 244 268 276 273 275 271 272 261 253 248 243 257 252 247 250 250 253 252 247 241 228 223 218 242 256 260 213 216 233 214 211 221 216 238 230 228
319 316 286 281 279 272 295 301 304 285 287 281 280 272 267 265 254 249 248 244 238 241 249 253 256 253 254 241 220 215 238 245 261 195 193 240 199 240 246 221 220 223 221
339 319 316 314 296 289 280 283 291 290 277 272 271 275 268 267 249 244 248 256 246 226 230 250 253 245 252 245 241 218 217 222 238 228 203 240 188 236 236 245 224 224 226
349 334 321 316 307 301 297 297 297 292 276 270 266 266 266 266 260 252 251 246 261 250 232 229 236 247 246 253 232 239 236 240 251 242 207 250 202 235 224 239 223 233 233
346 339 325 320 310 301 291 292 300 298 284 273 273 267 261 260 260 249 250 249 250 261 241 228 231 233 240 242 235 235 232 219 233 235 194 237 226 246 222 241 234 218 220
320 318 320 306 298 300 292 297 302 290 283 284 282 272 261 255 252 243 242 244 245 254 253 257 244 236 245 247 229 224 230 229 229 248 198 198 224 188 265 225 233 227 216